Wind_Speed
78 80 82 82 83 83 83 82 81 80 80 81 82 84 85 85 86 87 87 86 86 85 85 85 85 85 85 85 85 85 84 84 84 84 84 84 84 84 84 84 84 84 82 82 82 81 81 81 81 82 82 82 82 81 80 78 77 78 78 78 79 80 80
76 77 79 80 81 81 81 81 80 80 80 80 81 82 83 83 83 84 84 85 86 86 86 86 86 85 85 86 86 87 87 86 86 85 85 84 84 84 84 85 85 85 84 83 83 83 82 83 83 83 83 84 84 84 84 83 81 80 80 80 80 81 82
77 77 77 78 79 79 80 80 79 79 79 79 80 81 82 83 83 82 82 82 83 84 85 86 86 86 86 86 86 86 87 88 87 87 87 86 86 86 86 86 86 86 86 86 86 86 85 86 86 85 85 85 86 86 86 86 85 84 82 81 81 81 81
78 78 78 78 78 78 78 78 78 78 77 77 77 78 79 81 83 84 83 83 83 83 83 83 84 85 85 86 87 87 88 88 89 89 89 89 89 89 88 88 88 88 88 88 87 87 87 88 89 89 88 88 88 88 89 88 88 87 85 84 83 82 82
81 80 79 79 79 78 78 78 77 77 77 76 75 74 74 76 78 80 82 84 85 85 85 84 84 84 84 84 85 86 87 88 88 89 89 89 89 90 90 90 90 90 89 89 89 88 88 89 90 90 90 90 90 90 91 91 91 90 89 87 86 85 84
84 83 82 81 80 80 79 78 78 77 76 75 74 73 72 72 72 73 75 78 81 83 85 86 86 86 86 85 85 85 86 87 87 87 87 88 88 88 89 89 89 90 90 90 90 90 90 90 90 91 91 91 91 91 91 92 92 92 92 91 89 87 85
84 84 83 82 82 81 80 80 79 78 77 75 74 74 72 71 70 70 70 71 72 75 77 80 83 85 86 87 87 87 88 88 88 88 88 87 87 88 88 89 89 90 91 91 91 91 90 90 91 91 92 91 92 93 93 92 93 93 94 94 92 90 88
81 82 82 82 82 82 81 81 80 79 78 77 76 74 73 72 71 70 69 69 68 69 70 71 74 76 79 81 83 85 87 88 89 89 89 89 89 89 89 90 90 91 91 92 92 91 91 91 91 92 93 93 94 95 94 94 94 95 96 96 96 95 93
79 79 80 80 81 81 81 81 81 80 80 79 78 76 74 73 72 71 70 69 68 68 68 68 69 69 71 72 75 77 80 83 86 88 89 90 91 90 90 90 91 91 91 92 92 92 92 92 92 93 93 95 96 96 95 95 96 97 98 98 100 100 99
79 78 78 78 79 79 79 79 79 80 79 79 79 78 76 75 73 72 71 70 69 69 68 68 68 68 69 69 70 71 74 76 79 82 84 86 88 90 91 91 91 92 92 93 93 94 93 93 93 93 93 94 95 96 96 97 97 98 98 99 100 101 101
80 80 79 79 79 78 78 78 78 77 77 78 78 78 77 76 74 72 71 70 70 70 70 69 69 69 69 69 69 70 71 73 74 76 78 80 82 85 87 89 91 92 93 94 94 95 95 95 94 94 94 94 95 96 97 97 98 98 98 98 100 101 101
80 79 79 79 79 79 79 78 78 77 76 76 76 76 76 75 74 73 72 72 72 72 71 70 70 69 69 69 70 71 71 72 73 74 75 76 78 79 82 84 86 89 91 93 94 95 95 95 94 94 93 94 95 96 97 98 99 99 99 99 100 100 99
75 76 76 76 76 76 77 77 77 77 76 75 75 75 74 73 73 73 73 73 73 73 72 70 69 69 69 70 70 71 72 72 73 74 75 75 76 77 79 80 82 84 87 89 92 93 94 94 95 95 94 94 95 97 98 99 99 100 100 101 101 100 99
67 68 69 70 70 70 71 71 72 72 73 73 74 74 72 72 73 73 73 73 73 72 71 70 69 69 69 70 70 71 72 72 73 74 74 75 76 77 78 79 81 82 84 86 88 89 90 91 92 93 93 93 95 96 98 99 100 101 102 102 102 102 101
59 60 61 62 62 63 63 63 64 65 66 67 68 69 69 70 71 71 71 71 71 71 70 69 68 68 68 69 70 71 71 72 73 73 74 74 75 76 78 79 81 83 84 85 86 87 88 88 89 90 91 91 92 93 94 96 97 99 101 102 103 103 103
53 53 53 53 54 55 55 55 56 57 58 60 61 62 64 65 66 66 67 68 68 68 68 67 67 67 67 68 69 70 70 71 71 72 72 73 73 75 76 78 80 82 83 84 85 86 86 87 87 88 88 88 89 90 91 93 94 95 96 98 99 100 100
47 46 46 47 47 48 49 50 51 52 53 55 56 57 59 61 61 61 62 64 64 65 65 64 64 64 65 66 67 68 68 68 68 68 68 68 68 69 70 72 74 76 77 78 79 81 82 83 84 84 85 85 86 86 88 90 91 91 92 94 95 96 96
42 42 41 42 44 45 46 47 47 48 49 51 52 54 55 56 56 57 58 60 61 61 60 61 61 62 62 63 64 64 64 64 63 63 63 63 62 62 63 65 66 66 67 68 70 72 73 74 76 78 79 80 81 82 84 86 87 88 89 91 92 92 92
39 39 39 40 41 42 43 44 44 45 46 47 49 50 50 51 51 53 55 56 56 57 57 57 58 58 59 59 60 60 60 60 60 59 59 58 58 58 58 59 60 60 60 62 64 65 66 67 69 70 71 73 74 76 78 80 82 84 85 87 87 88 89
35 37 38 39 39 40 40 40 41 41 42 44 46 46 46 46 48 50 51 52 52 52 53 53 54 54 55 55 56 56 56 57 57 57 56 57 57 57 57 58 58 59 59 60 62 63 64 65 66 67 68 69 70 72 74 76 78 80 81 83 84 84 86
32 34 35 36 37 37 37 37 37 38 39 40 42 42 41 42 45 47 47 47 47 48 48 48 49 50 51 52 53 53 54 55 55 56 56 57 57 57 57 58 58 59 59 60 61 62 63 64 65 66 67 68 69 70 72 73 74 76 77 79 81 81 82
30 31 32 33 33 33 33 34 34 35 36 37 39 38 38 40 43 44 43 43 43 44 44 45 46 48 49 50 51 52 53 54 55 55 56 57 57 58 59 59 59 60 61 61 63 64 65 66 67 68 68 70 70 71 72 73 73 75 77 79 80 80 81
27 28 29 30 30 30 30 31 32 32 34 35 36 35 36 38 40 40 40 40 40 42 43 44 46 47 48 50 51 52 53 53 54 55 56 57 59 60 61 62 63 64 65 66 67 68 69 70 71 72 73 74 75 75 76 77 77 78 80 81 82 82 83
25 25 26 26 26 27 28 29 29 30 32 33 33 33 34 36 37 37 37 38 39 40 42 43 44 45 47 48 49 51 52 53 55 56 58 59 61 63 64 66 67 69 70 71 73 74 75 75 76 77 78 79 79 80 81 81 82 83 84 85 86 86 86
22 22 23 23 24 25 26 27 27 28 30 31 32 32 33 34 35 35 36 37 38 39 40 41 42 44 45 47 49 51 53 55 57 59 61 63 65 67 69 71 72 73 75 76 77 78 79 80 81 82 83 83 84 85 86 87 87 87 88 89 89 89 89
20 20 20 20 22 23 24 25 25 27 28 29 30 31 32 32 33 34 34 36 37 38 40 42 43 45 47 49 52 54 56 59 61 63 65 67 68 70 71 73 74 75 76 77 78 79 80 81 82 83 84 85 86 87 88 89 90 90 91 92 93 93 93
18 18 18 19 20 21 22 23 24 25 26 27 28 29 30 31 32 33 35 36 38 40 42 44 46 48 51 53 55 58 60 62 64 65 67 68 68 69 70 71 72 73 74 75 76 77 79 80 81 82 83 84 85 87 88 89 90 91 92 93 94 95 95
16 16 17 17 18 19 20 21 22 23 24 25 26 27 29 30 32 34 36 38 40 42 45 47 49 52 54 56 58 60 62 63 64 65 65 66 67 67 68 68 69 70 71 71 72 73 74 76 77 78 79 81 82 83 85 86 87 89 90 91 92 93 94
13 14 15 16 17 18 18 19 20 21 22 23 25 27 29 31 33 35 38 40 43 45 48 50 52 54 56 57 58 59 60 60 61 61 62 62 62 62 62 62 63 64 65 66 67 68 69 71 72 73 75 76 77 78 80 81 82 83 84 86 87 88 89
13 13 13 14 15 15 16 17 18 20 22 24 27 29 32 34 36 38 41 43 46 48 50 51 52 53 54 54 54 54 54 54 54 54 54 54 54 54 55 57 58 59 61 62 64 66 67 69 70 71 73 74 75 77 78 79 80 81 81 82 82 83 84
10 10 10 11 12 14 16 18 20 23 25 28 30 33 35 37 40 42 44 46 47 48 49 49 49 48 48 47 47 46 45 45 45 46 46 47 49 50 51 53 54 55 57 58 60 62 63 65 66 68 69 71 72 74 76 78 79 81 81 82 82 82 81
7 9 11 13 15 17 19 22 25 27 29 32 34 37 39 40 42 43 44 45 45 45 44 43 42 41 40 39 39 39 39 40 40 41 42 43 44 45 46 47 48 49 50 51 52 54 55 57 58 60 62 64 65 67 69 71 74 77 79 81 81 82 82
10 12 15 17 19 22 24 27 29 31 34 35 37 38 39 40 41 41 41 41 40 38 37 36 35 34 34 34 34 35 36 37 37 38 39 39 40 40 41 41 42 42 43 44 45 46 47 49 50 52 54 56 58 60 62 64 66 69 72 75 77 79 80
14 17 20 22 24 27 29 31 32 34 35 36 37 37 38 38 38 36 35 33 32 31 30 30 29 29 30 30 31 32 33 33 34 34 35 35 36 36 37 37 38 38 38 39 40 41 42 43 44 45 47 48 50 52 54 56 58 60 63 66 69 71 74
19 22 24 26 28 29 31 32 32 33 34 34 35 35 34 32 30 29 27 26 26 25 25 25 25 26 27 28 28 29 29 30 30 31 32 33 34 34 35 35 36 36 37 37 38 39 40 41 42 43 43 44 44 45 46 48 50 52 54 57 59 62 65
22 24 26 27 28 29 30 31 31 32 32 31 30 28 27 25 24 23 22 22 21 21 22 22 23 24 24 25 26 26 27 28 29 30 31 31 32 33 34 34 34 35 36 36 37 38 40 41 42 43 43 43 43 42 42 42 43 45 47 49 51 53 56
Wind_Direction
265 264 263 264 264 264 263 263 262 261 260 260 260 261 261 260 259 259 259 259 259 259 258 258 258 258 258 258 258 258 258 258 257 257 258 258 258 258 259 259 259 259 258 258 258 257 257 257 257 257 257 256 255 254 254 253 253 254 254 255 256 257 258
265 265 264 263 264 264 264 264 263 262 261 259 258 258 259 260 260 260 259 259 259 258 258 258 258 258 258 258 258 258 258 257 257 257 257 258 258 258 258 259 259 259 259 259 258 258 257 257 257 257 257 256 255 255 254 253 253 253 254 254 255 256 257
264 264 264 263 263 263 263 264 264 264 263 261 260 258 257 257 258 258 259 259 259 259 258 258 258 258 258 258 257 257 258 258 258 258 258 258 259 259 259 260 260 260 260 260 259 259 259 259 259 258 258 258 257 256 255 254 253 253 253 254 254 255 255
263 262 262 262 262 262 262 263 263 264 264 263 263 261 260 258 257 257 257 258 258 258 258 258 258 258 258 258 258 258 258 259 259 259 259 259 260 260 261 261 262 262 262 261 261 261 261 260 260 260 260 260 259 258 257 256 255 254 254 254 255 255 255
263 262 262 262 261 262 262 262 262 263 263 264 264 264 263 261 260 259 258 257 257 257 258 258 258 258 258 258 258 258 259 259 259 259 260 260 260 261 261 262 262 262 262 262 262 262 262 261 261 261 261 261 261 261 260 259 258 257 256 256 256 256 257
264 263 262 262 261 261 261 262 262 262 262 263 264 264 264 263 262 261 260 259 259 258 258 258 258 258 258 259 259 259 259 259 259 260 260 260 261 261 261 262 262 262 263 263 262 262 262 262 262 262 262 262 262 262 261 261 260 260 259 258 258 258 258
264 264 263 262 262 261 261 261 262 262 262 263 263 263 264 264 264 263 262 261 261 260 259 259 259 259 259 259 259 259 259 260 260 260 260 260 260 261 261 261 262 262 262 263 262 262 261 261 262 262 262 263 262 262 262 263 263 262 261 261 260 259 259
262 262 262 262 262 261 261 261 261 261 261 262 262 263 263 263 264 264 263 263 262 261 261 260 259 259 259 259 259 259 260 260 260 260 260 260 260 260 261 261 261 262 262 262 262 262 262 262 262 262 262 262 262 262 263 263 263 262 262 262 262 261 260
261 260 260 260 260 260 260 260 260 260 260 260 261 262 262 263 263 263 263 263 263 262 262 261 261 260 259 259 259 259 259 259 259 259 260 260 260 261 261 261 261 261 262 262 262 263 263 262 262 262 263 263 263 263 263 262 262 262 262 262 262 262 261
260 260 259 259 259 259 259 259 259 259 259 259 259 260 261 262 262 263 263 263 263 263 262 262 261 260 260 260 260 259 259 259 259 259 259 259 259 260 260 260 261 261 261 261 262 262 262 262 262 262 262 262 263 263 263 263 262 262 262 262 262 262 262
261 260 260 259 259 258 258 258 258 258 258 258 258 259 260 261 262 263 263 263 262 261 260 260 260 261 262 262 262 261 261 261 260 260 260 259 259 259 259 260 260 260 260 260 260 260 261 261 261 261 261 261 262 262 262 262 262 262 262 262 262 262 262
262 261 260 260 259 258 258 257 257 257 257 258 258 258 258 259 261 262 262 262 261 260 260 260 261 262 262 262 262 262 262 262 262 261 261 261 261 261 260 260 260 260 260 260 260 259 259 259 260 259 259 260 260 260 261 261 261 261 261 261 261 262 262
262 261 260 260 259 258 257 257 257 257 257 257 257 257 257 258 259 260 261 261 261 261 261 262 262 262 262 263 263 263 263 263 263 263 263 263 262 262 262 262 262 261 261 260 260 260 260 260 260 259 258 258 259 259 259 260 260 260 261 261 261 261 261
261 260 259 259 258 257 257 256 256 256 256 256 256 256 256 256 257 258 259 260 261 261 262 262 262 263 264 264 264 264 264 264 264 264 264 264 264 264 264 264 263 263 262 262 261 261 261 261 260 260 259 258 258 259 259 259 259 259 259 259 259 259 259
261 260 259 257 257 256 256 255 255 255 255 255 255 255 255 255 255 256 257 258 259 260 261 262 262 263 264 265 265 266 266 266 266 266 266 266 266 265 265 265 264 263 263 262 262 262 261 261 261 261 260 259 259 259 259 258 258 258 258 259 258 258 258
261 259 258 256 255 254 254 254 254 254 254 254 254 254 254 253 253 254 255 256 257 259 260 261 262 263 264 265 266 267 268 268 268 268 268 267 267 266 266 265 264 264 263 263 263 263 263 262 261 261 261 260 260 259 259 259 259 259 259 259 259 259 258
258 257 256 255 253 252 252 251 251 252 252 253 253 253 253 253 253 253 253 254 256 257 259 260 261 263 264 266 267 268 268 269 269 269 268 268 268 267 266 265 264 264 264 264 264 264 264 263 263 262 262 262 261 261 261 260 260 260 260 260 259 259 259
255 254 254 253 252 251 250 250 249 250 250 251 252 252 252 253 253 253 253 254 255 256 258 260 261 263 264 266 267 268 268 268 269 269 269 269 268 267 266 265 265 265 265 265 265 264 264 264 264 264 263 263 262 262 262 262 261 261 260 260 260 260 260
252 251 251 252 252 251 251 250 250 250 250 251 251 251 252 253 254 254 254 254 255 257 258 260 262 263 264 265 266 267 268 268 268 268 269 268 267 266 266 266 267 266 266 265 265 265 265 264 264 264 263 263 263 262 263 263 263 262 262 262 262 261 261
252 251 251 252 252 252 252 252 251 251 251 252 252 251 251 253 254 254 255 256 257 258 260 261 263 264 264 265 266 267 268 268 269 269 269 268 268 267 267 268 268 267 266 266 266 267 267 266 265 265 264 263 263 262 262 263 263 263 263 263 263 263 263
253 252 252 252 253 253 253 253 252 252 252 253 253 252 251 252 253 254 255 257 258 260 261 262 263 264 265 266 267 268 268 269 270 270 270 269 269 269 268 267 267 267 267 267 266 266 266 266 266 266 266 265 264 264 263 264 264 264 265 265 265 264 264
255 254 254 254 254 254 254 253 252 252 252 253 253 252 251 252 253 255 256 257 259 260 261 262 263 264 266 267 268 269 269 270 270 270 270 270 270 269 268 268 267 267 267 266 266 266 266 266 266 266 266 266 266 265 264 264 264 264 264 264 264 264 264
256 255 255 255 255 255 255 254 253 253 253 253 254 253 252 253 255 257 258 259 260 262 263 264 265 266 267 268 269 270 270 270 270 270 271 271 271 271 270 270 270 269 268 268 268 267 267 267 267 266 266 266 266 266 266 265 265 264 264 264 264 264 265
256 256 255 255 255 255 255 254 254 254 255 255 256 256 255 256 258 260 261 262 263 264 266 266 267 268 268 269 269 270 270 271 271 271 272 272 272 273 273 272 272 272 271 271 270 270 269 268 268 267 267 267 266 266 266 265 265 265 264 265 265 265 265
257 257 256 256 256 255 255 255 255 256 257 258 259 259 260 260 262 263 264 265 266 266 267 268 268 268 268 269 269 270 270 271 272 272 273 273 273 273 273 274 273 273 273 272 272 271 271 270 269 269 268 267 266 266 266 265 265 264 264 264 264 264 264
259 258 258 257 256 255 255 255 255 257 259 261 262 263 264 264 265 266 266 267 267 267 267 268 268 268 269 270 271 271 272 273 274 274 274 275 275 275 275 274 274 274 273 273 272 272 271 270 270 269 268 268 267 266 266 265 264 264 264 263 263 263 263
259 260 260 259 258 257 257 257 259 260 263 265 265 265 266 266 266 267 267 267 268 269 269 270 271 272 273 274 275 276 277 278 278 278 278 278 278 277 277 276 276 275 275 274 273 273 272 271 270 269 269 268 267 266 266 265 265 264 263 263 262 262 262
262 263 263 263 263 263 263 264 264 264 265 266 266 267 267 267 268 269 270 271 272 273 274 275 276 278 279 280 280 281 281 281 281 281 281 281 281 280 280 280 279 278 278 277 276 275 274 273 272 271 270 269 268 267 266 265 265 264 263 263 262 262 262
267 267 268 268 268 267 266 266 266 265 265 266 268 270 271 272 272 273 274 276 277 278 279 280 281 282 282 283 283 283 283 283 283 283 283 283 283 283 283 283 282 282 281 281 280 279 278 277 276 274 273 272 271 269 268 267 265 264 263 263 262 262 261
270 270 270 269 268 268 267 268 268 269 269 271 272 274 276 277 278 279 280 281 282 283 283 284 284 284 284 285 285 285 285 285 285 285 286 286 286 286 286 285 285 284 284 283 282 281 280 279 278 276 275 274 272 271 270 269 267 266 264 263 262 261 261
275 276 275 274 275 276 276 276 277 277 277 278 279 280 281 283 283 284 284 285 285 285 286 286 286 286 286 287 287 286 287 287 287 288 288 289 289 289 289 288 288 288 287 287 286 285 284 282 281 279 277 276 274 272 270 269 268 266 265 263 262 261 260
288 288 288 287 286 286 285 284 284 284 284 284 285 285 286 286 286 286 287 287 287 287 287 288 288 287 287 287 288 288 289 290 291 292 293 293 294 294 294 294 293 293 292 291 290 289 288 287 286 284 282 280 277 275 272 270 268 266 265 263 262 261 259
301 299 298 297 294 292 291 290 290 289 288 288 288 287 287 287 287 287 288 288 288 288 287 287 287 287 288 289 290 291 293 294 296 297 299 300 300 300 300 300 299 298 297 297 296 295 294 293 292 290 288 285 282 279 276 273 270 268 266 264 262 261 259
307 304 302 300 298 296 294 293 292 291 290 289 288 288 287 287 287 287 287 287 287 286 286 286 287 288 290 292 293 296 298 301 303 305 306 307 307 307 307 306 306 306 306 306 306 306 306 305 303 300 297 294 290 286 282 278 275 271 268 266 264 262 260
307 305 302 300 298 296 295 293 292 291 290 289 289 288 288 287 287 287 287 286 286 286 286 288 290 292 294 297 300 303 307 309 311 312 313 314 314 314 314 314 314 314 315 316 317 318 319 318 316 314 311 307 302 296 291 286 281 277 273 270 267 264 261
308 305 303 301 299 297 296 295 294 293 292 291 290 289 288 288 288 288 287 287 287 288 289 291 294 297 301 305 309 312 314 315 316 317 317 318 318 319 319 319 319 319 321 323 325 327 328 328 327 325 323 319 315 309 303 296 290 284 279 275 271 267 264
Height
5438 5438 5438 5437 5437 5437 5439 5440 5442 5443 5444 5445 5446 5447 5448 5449 5450 5452 5454 5455 5456 5457 5457 5459 5461 5462 5464 5464 5466 5468 5468 5469 5469 5470 5472 5474 5475 5478 5479 5481 5481 5487 5494 5495 5495 5499 5500 5500 5501 5502 5505 5509 5511 5513 5515 5517 5519 5519 5520 5521 5522 5522 5523
5426 5426 5426 5426 5425 5425 5426 5427 5429 5429 5431 5433 5434 5435 5436 5438 5439 5440 5442 5443 5444 5445 5445 5447 5449 5451 5452 5452 5454 5456 5456 5457 5458 5458 5461 5462 5463 5466 5468 5468 5469 5473 5479 5483 5484 5487 5489 5489 5490 5491 5494 5495 5498 5500 5502 5505 5508 5508 5509 5511 5512 5512 5513
5413 5413 5413 5413 5413 5414 5415 5415 5416 5417 5418 5420 5421 5423 5424 5426 5427 5429 5430 5431 5432 5433 5434 5435 5437 5438 5440 5440 5442 5444 5444 5445 5447 5447 5449 5451 5452 5454 5456 5456 5456 5459 5464 5469 5472 5474 5477 5478 5477 5480 5482 5482 5484 5487 5489 5492 5495 5496 5497 5499 5500 5502 5503
5400 5401 5401 5401 5401 5402 5403 5404 5404 5405 5406 5406 5408 5410 5412 5414 5415 5416 5418 5419 5420 5421 5422 5423 5425 5426 5427 5428 5430 5432 5432 5433 5435 5436 5438 5440 5441 5442 5444 5444 5444 5445 5449 5453 5457 5461 5464 5464 5465 5468 5470 5470 5471 5473 5475 5478 5481 5483 5486 5488 5488 5489 5492
5386 5388 5389 5389 5389 5390 5390 5392 5393 5393 5394 5395 5396 5398 5399 5400 5402 5403 5405 5406 5408 5409 5410 5411 5413 5414 5415 5416 5417 5419 5420 5421 5422 5424 5426 5428 5430 5430 5431 5432 5431 5433 5435 5438 5442 5448 5450 5450 5452 5455 5457 5458 5458 5459 5460 5463 5467 5470 5472 5475 5476 5477 5479
5372 5374 5375 5376 5377 5377 5378 5379 5380 5381 5382 5384 5385 5386 5387 5388 5390 5391 5393 5394 5395 5397 5398 5399 5400 5401 5402 5404 5405 5406 5407 5408 5410 5412 5413 5415 5417 5418 5418 5418 5419 5420 5422 5424 5428 5433 5436 5437 5439 5441 5443 5446 5445 5444 5445 5448 5452 5456 5458 5460 5462 5465 5466
5357 5359 5361 5362 5363 5365 5366 5367 5367 5369 5371 5372 5373 5373 5375 5377 5378 5380 5381 5382 5384 5385 5386 5387 5388 5389 5390 5391 5392 5393 5394 5395 5397 5398 5400 5402 5404 5405 5405 5406 5407 5408 5409 5410 5413 5418 5422 5424 5426 5427 5430 5432 5431 5428 5431 5435 5438 5440 5441 5443 5447 5450 5452
5344 5345 5347 5348 5349 5352 5353 5354 5356 5357 5358 5359 5360 5362 5364 5365 5366 5368 5370 5371 5372 5373 5374 5375 5376 5377 5378 5379 5379 5380 5381 5382 5383 5385 5387 5388 5389 5391 5392 5393 5395 5396 5396 5398 5400 5404 5408 5410 5411 5414 5417 5419 5416 5414 5419 5423 5421 5420 5424 5428 5429 5432 5436
5330 5332 5333 5334 5336 5338 5340 5341 5343 5344 5346 5347 5348 5350 5352 5353 5355 5357 5358 5360 5361 5362 5363 5364 5364 5364 5366 5366 5367 5368 5369 5370 5371 5372 5374 5375 5376 5378 5379 5380 5382 5383 5384 5385 5386 5389 5393 5394 5396 5400 5403 5403 5402 5402 5405 5407 5404 5403 5409 5413 5411 5414 5421
5316 5318 5319 5321 5322 5324 5326 5328 5330 5332 5333 5335 5336 5338 5340 5342 5344 5346 5348 5350 5351 5351 5351 5351 5351 5352 5353 5354 5356 5357 5357 5358 5359 5360 5362 5364 5364 5365 5367 5368 5369 5370 5371 5372 5372 5375 5378 5379 5382 5387 5389 5387 5388 5388 5388 5389 5389 5388 5392 5395 5393 5397 5406
5301 5303 5305 5307 5309 5310 5313 5315 5317 5319 5321 5322 5324 5326 5328 5331 5334 5336 5338 5339 5339 5338 5338 5338 5339 5341 5342 5344 5345 5346 5346 5347 5348 5348 5350 5351 5352 5353 5354 5355 5356 5357 5358 5358 5359 5361 5364 5365 5368 5374 5374 5373 5374 5374 5371 5372 5373 5372 5375 5377 5377 5381 5390
5286 5288 5290 5292 5294 5297 5299 5302 5304 5306 5309 5311 5312 5314 5317 5321 5323 5325 5326 5326 5325 5325 5326 5328 5331 5332 5332 5333 5334 5334 5334 5335 5336 5337 5338 5340 5341 5342 5342 5343 5344 5344 5345 5345 5345 5346 5350 5351 5354 5358 5360 5359 5359 5358 5356 5355 5356 5357 5359 5360 5361 5364 5373
5272 5274 5276 5278 5280 5282 5285 5288 5291 5294 5296 5299 5301 5302 5307 5312 5313 5312 5313 5313 5312 5314 5316 5319 5320 5320 5320 5322 5322 5322 5323 5324 5325 5326 5327 5329 5330 5330 5331 5331 5331 5331 5332 5331 5331 5332 5335 5338 5338 5341 5346 5347 5344 5342 5342 5342 5342 5343 5343 5344 5345 5349 5356
5258 5260 5262 5265 5267 5269 5272 5275 5278 5281 5284 5287 5289 5291 5297 5301 5300 5300 5301 5302 5302 5304 5306 5307 5308 5308 5309 5310 5310 5310 5312 5312 5313 5315 5316 5318 5319 5319 5319 5319 5319 5317 5316 5316 5317 5318 5321 5324 5323 5324 5330 5333 5330 5327 5328 5328 5327 5327 5326 5327 5329 5332 5337
5247 5249 5251 5253 5255 5258 5260 5264 5267 5270 5273 5275 5277 5282 5286 5288 5288 5289 5291 5291 5292 5293 5295 5296 5297 5298 5299 5298 5297 5298 5300 5300 5302 5304 5305 5306 5307 5307 5307 5306 5305 5303 5301 5302 5304 5304 5306 5309 5309 5309 5312 5315 5314 5312 5312 5312 5311 5310 5310 5310 5312 5315 5320
5236 5239 5241 5243 5245 5248 5251 5254 5257 5260 5263 5265 5268 5272 5275 5275 5277 5280 5281 5281 5282 5282 5284 5286 5287 5288 5288 5287 5286 5287 5289 5289 5291 5292 5293 5294 5295 5294 5294 5293 5290 5289 5289 5290 5290 5290 5291 5293 5294 5294 5296 5299 5299 5297 5296 5295 5294 5296 5296 5295 5296 5298 5303
5228 5230 5232 5234 5237 5240 5243 5246 5249 5251 5254 5256 5260 5263 5264 5265 5268 5270 5271 5271 5271 5272 5274 5276 5277 5278 5278 5277 5276 5277 5278 5278 5279 5280 5281 5282 5283 5282 5281 5279 5276 5277 5278 5279 5278 5278 5277 5278 5279 5280 5281 5283 5284 5283 5281 5279 5279 5282 5282 5279 5279 5281 5287
5220 5223 5225 5227 5230 5233 5235 5238 5241 5244 5246 5248 5251 5254 5256 5257 5259 5260 5260 5260 5261 5263 5266 5267 5268 5270 5269 5268 5267 5267 5267 5268 5268 5269 5270 5271 5272 5271 5268 5266 5266 5268 5270 5268 5265 5264 5265 5266 5267 5267 5268 5270 5270 5269 5267 5264 5264 5268 5267 5264 5264 5267 5272
5214 5216 5219 5221 5223 5226 5228 5231 5234 5236 5238 5240 5243 5246 5248 5250 5251 5250 5250 5251 5253 5256 5258 5258 5259 5260 5260 5259 5258 5257 5257 5258 5258 5259 5261 5261 5261 5260 5258 5257 5258 5260 5259 5257 5254 5254 5255 5256 5256 5256 5256 5257 5256 5256 5255 5251 5250 5252 5252 5250 5251 5253 5255
5208 5210 5213 5215 5217 5220 5222 5224 5227 5229 5231 5233 5235 5239 5242 5243 5242 5240 5241 5244 5246 5248 5250 5250 5250 5250 5250 5249 5249 5248 5249 5249 5249 5250 5251 5250 5250 5250 5250 5250 5249 5249 5248 5247 5247 5246 5245 5245 5245 5244 5244 5245 5245 5244 5243 5240 5239 5239 5239 5238 5238 5239 5239
5203 5205 5207 5209 5212 5214 5216 5219 5221 5222 5224 5226 5228 5232 5236 5236 5233 5232 5235 5238 5240 5241 5242 5242 5242 5241 5241 5241 5241 5241 5241 5241 5240 5241 5241 5240 5241 5241 5241 5240 5240 5239 5239 5238 5238 5236 5235 5234 5233 5233 5233 5233 5233 5232 5231 5230 5230 5230 5228 5225 5225 5226 5225
5199 5200 5202 5204 5207 5209 5211 5213 5215 5217 5219 5220 5222 5226 5229 5228 5225 5226 5230 5232 5233 5234 5234 5234 5234 5234 5233 5233 5233 5233 5232 5232 5232 5232 5231 5231 5232 5231 5231 5231 5230 5230 5229 5228 5227 5226 5226 5224 5223 5223 5222 5221 5221 5220 5220 5220 5220 5218 5215 5213 5212 5212 5212
5194 5196 5198 5200 5202 5205 5206 5208 5210 5212 5213 5214 5216 5219 5222 5221 5220 5221 5224 5226 5226 5226 5226 5226 5227 5226 5226 5225 5225 5225 5224 5224 5223 5223 5223 5222 5221 5221 5221 5220 5219 5219 5218 5217 5216 5215 5215 5214 5212 5212 5211 5210 5209 5208 5207 5207 5206 5205 5203 5200 5199 5200 5200
5191 5192 5194 5196 5199 5200 5202 5204 5206 5207 5208 5209 5211 5213 5214 5214 5215 5216 5218 5219 5219 5219 5219 5219 5219 5219 5218 5218 5217 5217 5216 5215 5215 5215 5214 5213 5212 5211 5210 5209 5208 5207 5206 5205 5204 5203 5202 5201 5200 5199 5198 5197 5196 5195 5194 5193 5192 5192 5190 5188 5187 5188 5189
5187 5189 5191 5193 5195 5196 5198 5200 5202 5202 5203 5204 5205 5207 5208 5209 5209 5211 5212 5212 5212 5212 5212 5212 5212 5212 5211 5211 5210 5209 5208 5207 5207 5206 5205 5204 5203 5201 5200 5198 5197 5195 5194 5192 5191 5190 5188 5187 5186 5185 5184 5183 5182 5181 5180 5178 5178 5178 5177 5175 5174 5175 5176
5184 5186 5188 5190 5191 5192 5194 5196 5197 5198 5199 5199 5200 5201 5202 5203 5204 5205 5205 5205 5206 5206 5206 5206 5205 5205 5204 5203 5202 5201 5200 5199 5198 5196 5195 5194 5192 5190 5188 5186 5185 5183 5181 5179 5177 5175 5174 5172 5171 5169 5168 5167 5166 5166 5164 5162 5162 5163 5162 5160 5158 5158 5160
5181 5183 5185 5186 5187 5189 5191 5192 5193 5194 5194 5195 5195 5196 5197 5198 5199 5199 5199 5199 5200 5199 5199 5198 5198 5197 5196 5195 5194 5192 5191 5189 5187 5185 5184 5182 5180 5178 5176 5174 5172 5170 5168 5166 5164 5161 5159 5157 5156 5154 5153 5151 5150 5148 5146 5145 5145 5145 5146 5144 5142 5142 5144
5179 5180 5182 5183 5184 5186 5187 5188 5189 5190 5191 5191 5191 5191 5192 5193 5194 5194 5193 5193 5193 5192 5191 5191 5190 5189 5187 5186 5184 5183 5181 5179 5177 5174 5172 5170 5168 5166 5163 5161 5158 5156 5154 5152 5149 5147 5145 5143 5140 5138 5136 5135 5133 5132 5130 5128 5127 5127 5128 5127 5125 5125 5127
5177 5178 5180 5181 5182 5183 5184 5185 5186 5187 5187 5187 5187 5187 5187 5188 5188 5188 5187 5187 5186 5185 5184 5183 5182 5180 5179 5177 5175 5173 5171 5169 5166 5164 5162 5159 5157 5154 5152 5149 5147 5144 5141 5139 5136 5133 5131 5129 5126 5123 5121 5119 5118 5116 5114 5112 5111 5110 5110 5110 5109 5108 5110
5175 5176 5177 5178 5179 5180 5181 5182 5182 5183 5183 5183 5183 5182 5182 5182 5182 5182 5181 5180 5179 5178 5176 5175 5173 5172 5170 5168 5166 5164 5162 5159 5157 5155 5152 5150 5148 5145 5142 5140 5137 5134 5131 5127 5124 5121 5118 5115 5112 5110 5107 5104 5102 5100 5098 5096 5094 5093 5093 5093 5093 5093 5095
5173 5174 5175 5176 5177 5177 5178 5178 5179 5179 5179 5179 5178 5177 5177 5176 5175 5175 5174 5173 5171 5170 5168 5166 5165 5163 5161 5159 5158 5156 5154 5152 5150 5147 5145 5142 5140 5137 5134 5131 5128 5124 5121 5117 5113 5109 5106 5102 5099 5096 5093 5089 5087 5085 5082 5079 5077 5076 5075 5076 5076 5077 5079
5172 5172 5173 5174 5174 5174 5175 5175 5174 5174 5174 5173 5172 5171 5170 5169 5168 5167 5166 5165 5163 5162 5160 5159 5157 5156 5154 5153 5151 5149 5148 5146 5143 5141 5138 5135 5132 5129 5126 5123 5119 5116 5112 5108 5104 5099 5095 5091 5087 5083 5079 5076 5072 5069 5067 5064 5061 5059 5058 5058 5059 5060 5062
5170 5170 5171 5171 5171 5171 5170 5170 5169 5168 5168 5167 5166 5165 5164 5162 5161 5160 5159 5158 5157 5155 5154 5153 5152 5150 5149 5147 5146 5144 5142 5140 5137 5135 5132 5129 5126 5122 5119 5115 5111 5108 5104 5100 5095 5091 5086 5082 5077 5073 5068 5064 5059 5055 5053 5050 5047 5044 5042 5041 5042 5042 5044
5168 5168 5168 5167 5167 5166 5165 5165 5164 5163 5162 5161 5160 5159 5158 5156 5155 5154 5153 5152 5151 5150 5149 5148 5147 5146 5144 5143 5141 5139 5137 5134 5132 5129 5126 5123 5119 5116 5112 5108 5104 5100 5096 5092 5088 5083 5078 5073 5068 5063 5058 5053 5048 5043 5040 5036 5033 5031 5029 5027 5026 5027 5027
5166 5165 5164 5164 5163 5161 5160 5159 5158 5157 5156 5155 5154 5153 5152 5151 5150 5149 5148 5148 5147 5146 5145 5144 5143 5141 5140 5138 5136 5134 5132 5129 5127 5124 5121 5117 5114 5110 5106 5102 5098 5094 5090 5086 5081 5076 5071 5066 5061 5055 5049 5044 5038 5033 5029 5025 5021 5018 5016 5014 5013 5013 5013
5163 5162 5161 5160 5158 5157 5155 5154 5152 5151 5150 5149 5148 5147 5146 5145 5145 5145 5144 5144 5143 5142 5141 5140 5139 5138 5136 5134 5132 5130 5128 5125 5122 5120 5117 5113 5110 5106 5101 5097 5093 5089 5084 5080 5076 5071 5066 5060 5054 5048 5042 5036 5030 5024 5020 5015 5011 5008 5005 5003 5001 5001 5000